Regional Weather Roundup
Issued by NWS Little Rock, AR

Home | Current Version | Previous Version | Graphics & Text | Print | Product List | Glossary Off
Versions: 1 2 3 4 5 6 7 8 9 10 11 12 13 14 15 16 17 18 19 20 21 22 23 24 25 26 27

000
ASUS44 KLZK 280005
RWRLZK

WEATHER ROUNDUP FOR ARKANSAS
NATIONAL WEATHER SERVICE LITTLE ROCK AR
700 PM CDT SAT AUG 27 2016

NOTE: "FAIR" INDICATES FEW OR NO CLOUDS BELOW 12,000 FEET WITH NO
SIGNIFICANT WEATHER AND/OR OBSTRUCTIONS TO VISIBILITY.

ARZ001-003-010-029-280100-
NORTHWEST ARKANSAS

CITY           SKY/WX    TMP DP  RH WIND       PRES   REMARKS
FAYETTEVILLE   CLOUDY    80  74  81 CALM      30.03R HX  85
6HR MIN TEMP:  80; 6HR MAX TEMP:  86;

FORT SMITH     PTCLDY    85  69  58 E3        29.97S HX  89
6HR MIN TEMP:  80; 6HR MAX TEMP:  88; 6HR PCP: TRACE;

HARRISON       PTCLDY    78  72  81 S9        30.05R
6HR MIN TEMP:  75; 6HR MAX TEMP:  82; 6HR PCP:  0.01;

BENTONVILLE    CLOUDY    84  66  54 S6        30.03S HX  86
6HR MIN TEMP:  82; 6HR MAX TEMP:  88;

ROGERS         CLOUDY    83  72  69 E9        30.03  HX  88
6HR MIN TEMP:  83; 6HR MAX TEMP:  87;

SILOAM SPGS    MOCLDY    84  64  51 SE7       30.03S HX  86
6HR MIN TEMP:  82; 6HR MAX TEMP:  88;

HIGHFILL       PTCLDY    85  71  63 S7        30.02S HX  90
6HR MIN TEMP:  84; 6HR MAX TEMP:  89;

SPRINGDALE     PTCLDY    82  72  69 SE5       30.05R HX  87
$$

ARZ004-005-016-280100-
NORTH CENTRAL ARKANSAS

CITY           SKY/WX    TMP DP  RH WIND       PRES   REMARKS
BATESVILLE     PTCLDY    86  73  66 CALM      30.01R HX  93
6HR MIN TEMP:  86; 6HR MAX TEMP:  91;

FLIPPIN        PTCLDY    82  72  69 CALM      30.01R HX  87
6HR MIN TEMP:  79; 6HR MAX TEMP:  88;

MTN HOME       PTCLDY    79  76  90 CALM      30.02R
6HR MIN TEMP:  77; 6HR MAX TEMP:  87; 6HR PCP:  0.12;

$$

ARZ040-041-280100-
WEST CENTRAL ARKANSAS

CITY           SKY/WX    TMP DP  RH WIND       PRES   REMARKS
MENA           PTCLDY    81  79  94 CALM      30.01S HX  89
MOUNT IDA      PTCLDY    83  73  72 CALM      29.99R HX  89
6HR MIN TEMP:  83; 6HR MAX TEMP:  91;

$$

ARZ009-017-025-026-028-280100-
NORTHEAST ARKANSAS

CITY           SKY/WX    TMP DP  RH WIND       PRES   REMARKS
CORNING          N/A     86  75  70 SE5       30.01S HX  95
JONESBORO      CLEAR     88  69  53 SE5       30.00R HX  92
6HR MIN TEMP:  87; 6HR MAX TEMP:  91;

NEWPORT        CLOUDY    85  75  72 SE5       30.00R HX  93
6HR MIN TEMP:  85; 6HR MAX TEMP:  91;

WALNUT RIDGE   CLEAR     86  73  66 E3        30.00R HX  93
6HR MIN TEMP:  86; 6HR MAX TEMP:  90;

BLYTHEVILLE    CLEAR     86  72  62 SE7       30.02R HX  92
6HR MIN TEMP:  86; 6HR MAX TEMP:  91;

$$

ARZ022-023-033-042-044-280100-
CENTRAL ARKANSAS

CITY           SKY/WX    TMP DP  RH WIND       PRES   REMARKS
LITTLE ROCK    PTCLDY    89  71  55 E7        29.98R HX  95
6HR MIN TEMP:  89; 6HR MAX TEMP:  93;

N LITTLE ROCK    N/A     86  72  61 E6        29.96R HX  92
6HR MIN TEMP:  86; 6HR MAX TEMP:  90;

JACKSONVILLE   CLEAR     88  74  62 CALM      29.98S HX  97
6HR MIN TEMP:  87; 6HR MAX TEMP:  92;

SEARCY         CLEAR     86  74  67 E3        30.00R HX  94
6HR MIN TEMP:  86; 6HR MAX TEMP:  92;

HOT SPRINGS    CLEAR     87  70  56 E7        29.99R HX  92
6HR MIN TEMP:  87; 6HR MAX TEMP:  91;

RUSSELLVILLE   CLEAR     84  76  76 NE5       29.98S HX  93
6HR MIN TEMP:  78; 6HR MAX TEMP:  89; 6HR PCP:  0.14;

$$

ARZ036-280100-
EAST ARKANSAS

CITY           SKY/WX    TMP DP  RH WIND       PRES   REMARKS
WEST MEMPHIS   CLEAR     86  72  62 NE6       29.99R HX  92
6HR MIN TEMP:  86; 6HR MAX TEMP:  92;

$$

ARZ050-053-066-070-073-280100-
SOUTHWEST ARKANSAS

CITY           SKY/WX    TMP DP  RH WIND       PRES   REMARKS
ARKADELPHIA    FAIR      85  77  77 CALM      29.97R HX  95
6HR MIN TEMP:  85; 6HR MAX TEMP:  89;

TEXARKANA      CLEAR     86  72  62 E3        29.97R HX  92
6HR MIN TEMP:  86; 6HR MAX TEMP:  91;

EL DORADO      PTCLDY    86  73  65 E7        29.98R HX  93
6HR MIN TEMP:  86; 6HR MAX TEMP:  91;

DE QUEEN       CLEAR     87  76  69 CALM      29.95R HX  97
6HR MIN TEMP:  87; 6HR MAX TEMP:  92;

$$

ARZ056-057-069-280100-
SOUTHEAST ARKANSAS

CITY           SKY/WX    TMP DP  RH WIND       PRES   REMARKS
PINE BLUFF     CLEAR     88  71  57 E6        29.98R HX  94
6HR MIN TEMP:  86; 6HR MAX TEMP:  92;

STUTTGART      CLEAR     88  68  51 E5        29.99S HX  91
6HR MIN TEMP:  86; 6HR MAX TEMP:  91;

MONTICELLO     CLEAR     90  75  61 CALM      29.97S HX 100
6HR MIN TEMP:  90; 6HR MAX TEMP:  95;


$$






USA.gov is the U.S. government's official web portal to all federal, state and local government web resources and services.